Location: Altavilla Irpina
(41.0000°N, 14.7833°E)
Time: 17:42:43
(UTC+00:00)

Cosmos 1980 Rocket - Pass Details

Date: 19 May 2025
Orbit: 829 x 847 km, 71.0° (Epoch: 17 June)

Event Time Altitude Azimuth Distance (km) Brightness Sun altitude
Rises 19:04:53 0° 353° (N) 3,380 6.0 -8.7°
Reaches altitude 10° 19:10:18 10° 36° (NE) 2,443 4.6 -9.5°
Maximum altitude 19:10:56 10° 43° (NE) 2,430 4.5 -9.6°
Drops below altitude 10° 19:11:34 10° 49° (NE) 2,442 4.5 -9.7°
Enters shadow 19:15:40 - 85° (E) 3,050 4.7 -10.3°
